"startDT [UTC]","vpos","CH4 [ppm]","stdev(CH4) [ppm]","CO2 [ppm]","stdev(CO2) [ppm]","H2O [ppm]","stdev(H2O)","p_LGR [torr]","T_LGR [C]","mt1_LGR [us]","mt2_LGR [us]","T_ECpre [C]","T_EC1 [C]","T_EC2 [C]","p_inlet [hPa]","p_in [hPa]","p_out [hPa]","T_inlet [C]","RH_inlet [%]","dwpt_inlet [C]","T_vent [C]","RH_vent [%]","dwpt_vent [C]","flow_vent [l min-1]","flow_inlet [l min-1]","dwpt_sample [C]","T_room [C]"
2012-01-28 00:00:00,0.0,1.9249,0.0008,402.96,0.22,-1.0,0.0,138.10,28.55,24.61,36.34,0.04,-272.74,-272.73,-53,551,-959,23.1,1.0,-36.1,23.0,1.0,-35.6,5.73,2.57,-32.5,27.2
2012-01-28 00:01:00,0.0,1.9249,0.0009,403.09,0.23,-1.0,0.0,138.10,28.57,24.61,36.34,0.04,-272.73,-272.73,-51,551,-959,23.1,1.0,-36.1,23.0,1.0,-35.7,5.73,2.51,-32.5,26.8
2012-01-28 00:02:00,0.0,1.9249,0.0010,403.13,0.28,-1.0,0.0,138.11,28.57,24.61,36.33,0.04,-272.74,-272.74,-54,552,-959,23.1,1.0,-36.4,23.0,1.0,-35.8,5.73,2.24,-32.6,26.6
2012-01-28 00:03:00,0.0,1.9245,0.0012,403.11,0.23,-1.0,0.0,138.11,28.57,24.61,36.33,0.04,-272.74,-272.74,-53,552,-959,23.1,1.0,-36.4,23.0,1.0,-35.9,5.73,2.69,-32.8,26.4
2012-01-28 00:04:00,0.0,1.9248,0.0015,403.13,0.21,-1.0,0.0,138.12,28.57,24.61,36.33,0.04,-272.73,-272.74,-53,553,-959,23.0,0.9,-36.7,22.9,1.0,-36.0,5.73,2.38,-32.9,26.2
2012-01-28 00:05:00,0.0,1.9260,0.0011,403.22,0.21,-1.0,0.0,138.13,28.56,24.61,36.33,0.04,-272.74,-272.74,-54,552,-959,23.0,0.9,-36.7,22.9,1.0,-36.2,5.73,2.39,-33.0,26.0
2012-01-28 00:06:00,0.0,1.9254,0.0011,403.13,0.25,-1.0,0.0,138.13,28.54,24.61,36.33,0.04,-272.73,-272.74,-53,553,-959,22.9,0.9,-37.0,22.8,1.0,-36.5,5.73,2.69,-33.1,25.8
2012-01-28 00:07:00,0.0,1.9250,0.0009,403.12,0.26,-1.0,0.0,138.13,28.52,24.61,36.33,0.04,-272.73,-272.74,-54,552,-959,22.9,0.9,-37.0,22.8,1.0,-36.5,5.73,2.18,-33.2,25.7
2012-01-28 00:08:00,0.0,1.9241,0.0010,402.99,0.19,-1.0,0.0,138.14,28.51,24.61,36.34,0.04,-272.74,-272.74,-51,553,-960,22.9,0.9,-37.1,22.8,1.0,-36.6,5.73,2.73,-33.3,25.6
2012-01-28 00:09:00,0.0,1.9235,0.0010,403.00,0.22,-1.0,0.0,138.14,28.49,24.60,36.33,0.04,-272.74,-272.73,-55,552,-960,22.8,0.9,-37.1,22.7,0.9,-36.7,5.73,2.32,-33.4,25.4
2012-01-28 00:10:00,0.0,1.9218,0.0012,402.94,0.23,-1.0,0.0,138.15,28.46,24.60,36.32,0.04,-272.73,-272.74,-52,552,-959,22.8,0.9,-37.2,22.7,0.9,-37.0,5.73,2.45,-33.4,25.4
2012-01-28 00:11:00,0.0,1.9206,0.0011,402.93,0.22,-1.0,0.0,138.15,28.43,24.60,36.32,0.04,-272.74,-272.73,-55,552,-959,22.7,0.9,-37.1,22.6,0.9,-36.8,5.73,2.65,-33.5,25.3
2012-01-28 00:12:00,0.0,1.9204,0.0011,402.91,0.23,-1.0,0.0,138.15,28.41,24.60,36.32,0.04,-272.74,-272.74,-52,549,-960,22.7,0.9,-37.1,22.6,1.0,-36.6,5.73,2.23,-33.6,25.4
2012-01-28 00:13:00,0.0,1.9203,0.0010,402.91,0.23,-1.0,0.0,138.15,28.39,24.61,36.32,0.04,-272.73,-272.74,-54,552,-958,22.7,0.9,-37.1,22.6,1.0,-36.7,5.73,2.49,-33.6,26.0
2012-01-28 00:14:00,0.0,1.9209,0.0009,402.91,0.22,-1.0,0.0,138.14,28.38,24.60,36.32,0.04,-272.73,-272.74,-54,551,-959,22.7,0.9,-37.0,22.6,1.0,-36.6,5.73,2.49,-33.5,26.4
2012-01-28 00:15:00,0.0,1.9222,0.0016,402.97,0.26,-1.0,0.0,138.14,28.37,24.60,36.33,0.04,-272.74,-272.74,-54,551,-958,22.7,0.9,-36.8,22.7,1.0,-36.4,5.73,2.49,-33.3,26.6
2012-01-28 00:16:00,0.0,1.9238,0.0011,403.08,0.22,-1.0,0.0,138.13,28.37,24.60,36.33,0.04,-272.74,-272.74,-54,551,-958,22.8,0.9,-36.8,22.7,1.0,-36.3,5.73,2.47,-33.2,26.8
2012-01-28 00:17:00,0.0,1.9236,0.0010,403.01,0.24,-1.0,0.0,138.12,28.38,24.60,36.33,0.04,-272.73,-272.73,-54,551,-958,22.8,0.9,-36.8,22.7,1.0,-36.3,5.73,2.46,-33.1,27.0
2012-01-28 00:18:00,0.0,1.9243,0.0010,403.07,0.25,-1.0,0.0,138.12,28.39,24.60,36.32,0.04,-272.73,-272.74,-53,551,-958,22.8,1.0,-36.6,22.8,1.0,-36.1,5.73,2.48,-33.1,27.1
2012-01-28 00:19:00,0.0,1.9253,0.0010,403.19,0.22,-1.0,0.0,138.11,28.40,24.61,36.32,0.04,-272.74,-272.74,-53,551,-959,22.9,1.0,-36.4,22.8,1.0,-36.0,5.73,2.46,-32.9,27.3
2012-01-28 00:20:00,0.0,1.9261,0.0009,403.15,0.24,-1.0,0.0,138.11,28.42,24.60,36.33,0.04,-272.73,-272.73,-53,552,-958,22.9,1.0,-36.3,22.8,1.0,-35.9,5.73,2.45,-32.9,27.4
2012-01-28 00:21:00,0.0,1.9256,0.0011,403.15,0.24,-1.0,0.0,138.10,28.44,24.60,36.33,0.04,-272.74,-272.74,-53,551,-958,22.9,1.0,-36.1,22.9,1.0,-35.7,5.73,2.46,-32.8,27.5
2012-01-28 00:22:00,0.0,1.9243,0.0008,403.09,0.23,-1.0,0.0,138.10,28.47,24.61,36.34,0.04,-272.74,-272.74,-53,551,-958,22.9,1.0,-36.0,22.9,1.0,-35.6,5.73,2.46,-32.7,27.6
2012-01-28 00:23:00,0.0,1.9249,0.0009,403.09,0.21,-1.0,0.0,138.10,28.49,24.60,36.33,0.04,-272.74,-272.74,-54,551,-960,23.0,1.0,-36.0,22.9,1.0,-35.6,5.73,2.46,-32.6,27.7
2012-01-28 00:24:00,0.0,1.9245,0.0011,403.04,0.26,-1.0,0.0,138.09,28.52,24.61,36.34,0.04,-272.73,-272.73,-53,551,-958,23.0,1.0,-36.0,23.0,1.0,-35.6,5.73,2.47,-32.5,27.8
2012-01-28 00:25:00,0.0,1.9247,0.0009,403.13,0.24,-1.0,0.0,138.09,28.54,24.61,36.34,0.04,-272.74,-272.73,-53,552,-958,23.1,1.0,-36.0,23.0,1.0,-35.6,5.73,2.45,-32.5,27.5
2012-01-28 00:26:00,0.0,1.9252,0.0008,403.27,0.24,-1.0,0.0,138.10,28.56,24.61,36.33,0.04,-272.74,-272.74,-53,553,-958,23.1,1.0,-36.0,23.0,1.1,-35.5,5.73,2.55,-32.5,27.1
2012-01-28 00:27:00,0.0,1.9256,0.0011,403.24,0.23,-1.0,0.0,138.11,28.57,24.61,36.33,0.04,-272.73,-272.73,-50,554,-960,23.1,1.0,-35.8,23.0,1.1,-35.4,5.73,2.62,-32.6,26.8
2012-01-28 00:28:00,0.0,1.9259,0.0011,403.29,0.23,-1.0,0.0,138.11,28.58,24.61,36.34,0.04,-272.73,-272.73,-53,552,-959,23.1,1.0,-35.8,23.0,1.1,-35.3,5.73,2.22,-32.7,26.6
2012-01-28 00:29:00,0.0,1.9256,0.0010,403.29,0.23,-1.0,0.0,138.12,28.57,24.61,36.33,0.04,-272.74,-272.74,-53,553,-959,23.0,1.0,-35.8,22.9,1.1,-35.4,5.73,2.65,-32.8,26.3
2012-01-28 00:30:00,0.0,1.9252,0.0011,403.24,0.21,-1.0,0.0,138.12,28.56,24.61,36.33,0.04,-272.74,-272.74,-54,552,-959,23.0,1.0,-35.8,22.9,1.1,-35.4,5.73,2.43,-32.9,26.1
2012-01-28 00:31:00,0.0,1.9250,0.0010,403.13,0.24,-1.0,0.0,138.13,28.55,24.61,36.34,0.04,-272.73,-272.74,-53,553,-959,23.0,1.0,-35.9,22.9,1.1,-35.4,5.73,2.36,-33.0,26.0
2012-01-28 00:32:00,0.0,1.9241,0.0013,403.25,0.21,-1.0,0.0,138.13,28.54,24.61,36.32,0.04,-272.74,-272.74,-54,552,-959,22.9,1.0,-35.9,22.8,1.1,-35.4,5.73,2.70,-33.1,25.9
2012-01-28 00:33:00,0.0,1.9231,0.0010,403.12,0.23,-1.0,0.0,138.14,28.52,24.61,36.33,0.04,-272.74,-272.74,-53,551,-959,22.9,1.0,-35.9,22.8,1.1,-35.5,5.73,2.18,-33.2,25.8
2012-01-28 00:34:00,0.0,1.9232,0.0010,403.17,0.22,-1.0,0.0,138.14,28.50,24.61,36.32,0.04,-272.74,-272.73,-53,552,-961,22.9,1.0,-35.8,22.7,1.1,-35.5,5.73,2.73,-33.3,25.6
2012-01-28 00:35:00,0.0,1.9213,0.0015,402.99,0.22,-1.0,0.0,138.14,28.47,24.61,36.33,0.04,-272.73,-272.74,-52,552,-959,22.8,1.0,-35.9,22.7,1.1,-35.6,5.73,2.30,-33.4,25.5
2012-01-28 00:36:00,0.0,1.9201,0.0010,402.94,0.26,-1.0,0.0,138.15,28.45,24.61,36.33,0.04,-272.74,-272.74,-55,552,-959,22.8,1.0,-36.0,22.7,1.1,-35.5,5.73,2.48,-33.5,25.6
2012-01-28 00:37:00,0.0,1.9208,0.0010,402.99,0.25,-1.0,0.0,138.15,28.42,24.61,36.33,0.04,-272.74,-272.74,-53,552,-959,22.7,1.0,-36.1,22.6,1.1,-35.5,5.73,2.62,-33.6,25.5
2012-01-28 00:38:00,0.0,1.9218,0.0011,403.10,0.21,-1.0,0.0,138.15,28.40,24.61,36.32,0.04,-272.74,-272.74,-54,552,-958,22.7,1.0,-36.0,22.6,1.1,-35.6,5.73,2.28,-33.6,25.9
2012-01-28 00:39:00,0.0,1.9232,0.0010,403.10,0.20,-1.0,0.0,138.15,28.38,24.60,36.32,0.04,-272.74,-272.74,-54,551,-959,22.7,1.0,-35.9,22.6,1.1,-35.5,5.73,2.45,-33.5,26.3
2012-01-28 00:40:00,0.0,1.9240,0.0011,403.02,0.23,-1.0,0.0,138.14,28.37,24.61,36.33,0.04,-272.74,-272.74,-54,551,-959,22.7,1.0,-36.0,22.6,1.1,-35.6,5.73,2.48,-33.4,26.6
2012-01-28 00:41:00,0.0,1.9246,0.0009,403.21,0.22,-1.0,0.0,138.13,28.37,24.60,36.32,0.04,-272.73,-272.73,-54,551,-959,22.7,1.0,-36.2,22.6,1.0,-35.8,5.73,2.47,-33.3,26.8
2012-01-28 00:42:00,0.0,1.9249,0.0010,403.08,0.24,-1.0,0.0,138.13,28.37,24.60,36.33,0.04,-272.74,-272.74,-53,551,-959,22.8,1.0,-36.2,22.7,1.0,-35.8,5.73,2.47,-33.2,26.9
2012-01-28 00:43:00,0.0,1.9260,0.0012,403.19,0.21,-1.0,0.0,138.12,28.38,24.60,36.33,0.04,-272.73,-272.74,-53,551,-958,22.8,1.0,-36.3,22.7,1.0,-36.0,5.73,2.47,-33.1,27.1
2012-01-28 00:44:00,0.0,1.9273,0.0011,403.24,0.25,-1.0,0.0,138.12,28.39,24.60,36.33,0.04,-272.74,-272.74,-53,551,-959,22.8,1.0,-36.5,22.8,1.0,-36.0,5.73,2.46,-33.0,27.2
2012-01-28 00:45:00,0.0,1.9267,0.0009,403.21,0.22,-1.0,0.0,138.11,28.41,24.60,36.33,0.04,-272.74,-272.74,-53,551,-958,22.9,0.9,-36.7,22.8,1.0,-36.1,5.73,2.47,-32.9,27.3
2012-01-28 00:46:00,0.0,1.9271,0.0010,403.12,0.21,-1.0,0.0,138.11,28.43,24.61,36.34,0.04,-272.74,-272.74,-53,551,-958,22.9,0.9,-36.7,22.8,1.0,-36.2,5.73,2.47,-32.9,27.4
2012-01-28 00:47:00,0.0,1.9273,0.0010,403.19,0.23,-1.0,0.0,138.10,28.45,24.60,36.33,0.04,-272.73,-272.73,-53,551,-958,22.9,0.9,-36.7,22.9,1.0,-36.2,5.73,2.47,-32.8,27.5
2012-01-28 00:48:00,0.0,1.9241,0.0011,403.19,0.22,-1.0,0.0,138.10,28.47,24.61,36.33,0.04,-272.74,-272.73,-53,551,-958,23.0,0.9,-36.6,22.9,1.0,-36.1,5.73,2.48,-32.7,27.6
2012-01-28 00:49:00,0.0,1.9253,0.0011,403.17,0.23,-1.0,0.0,138.10,28.49,24.61,36.33,0.04,-272.73,-272.74,-57,551,-957,23.0,0.9,-36.7,22.9,1.0,-36.2,5.73,2.48,-32.6,27.7
2012-01-28 00:50:00,0.0,1.9225,0.0014,403.06,0.28,-1.0,0.0,138.09,28.52,24.61,36.33,0.04,-272.73,-272.74,-53,552,-958,23.1,0.9,-36.6,23.0,1.0,-36.1,5.73,2.48,-32.5,27.8
2012-01-28 00:51:00,0.0,1.9205,0.0009,402.92,0.18,-1.0,0.0,138.10,28.54,24.61,36.33,0.04,-272.73,-272.74,-53,552,-958,23.1,0.9,-36.7,23.0,1.0,-36.1,5.73,2.41,-32.4,27.3
2012-01-28 00:52:00,0.0,1.9212,0.0012,403.04,0.23,-1.0,0.0,138.10,28.56,24.61,36.33,0.04,-272.74,-272.73,-54,552,-958,23.1,0.9,-36.6,23.0,1.0,-36.1,5.73,2.54,-32.5,26.8
2012-01-28 00:53:00,0.0,1.9227,0.0010,403.10,0.20,-1.0,0.0,138.11,28.57,24.61,36.33,0.04,-272.74,-272.74,-53,553,-961,23.1,0.9,-36.9,23.0,1.0,-36.4,5.73,2.64,-32.6,26.5
2012-01-28 00:54:00,0.0,1.9212,0.0010,402.97,0.23,-1.0,0.0,138.11,28.57,24.61,36.34,0.04,-272.73,-272.73,-53,553,-959,23.1,0.9,-36.9,23.0,1.0,-36.5,5.73,2.21,-32.7,26.4
2012-01-28 00:55:00,0.0,1.9206,0.0011,402.95,0.26,-1.0,0.0,138.12,28.56,24.61,36.34,0.04,-272.73,-272.74,-54,552,-959,23.0,0.9,-36.9,22.9,1.0,-36.5,5.73,2.69,-32.8,26.2
2012-01-28 00:56:00,0.0,1.9236,0.0026,403.12,0.26,-1.0,0.0,138.13,28.55,24.61,36.33,0.04,-272.74,-272.74,-53,553,-959,23.0,0.9,-37.0,22.9,1.0,-36.5,5.73,2.37,-33.0,26.1
2012-01-28 00:57:00,0.0,1.9249,0.0013,403.23,0.23,-1.0,0.0,138.13,28.54,24.61,36.33,0.04,-272.74,-272.74,-54,552,-959,22.9,0.9,-36.7,22.8,1.0,-36.3,5.73,2.42,-33.1,25.9
2012-01-28 00:58:00,0.0,1.9283,0.0011,403.55,0.20,-1.0,0.0,138.14,28.52,24.61,36.33,0.04,-272.73,-272.74,-54,555,-959,22.9,0.9,-36.6,22.8,1.0,-36.1,5.73,2.65,-33.2,25.7
2012-01-28 00:59:00,0.0,1.9295,0.0008,403.64,0.26,-1.0,0.0,138.14,28.50,24.61,36.32,0.04,-272.73,-272.74,-56,553,-959,22.9,1.0,-36.4,22.8,1.0,-36.0,5.73,2.19,-33.2,25.7
2012-01-28 01:00:00,0.0,1.9290,0.0011,403.56,0.17,-1.0,0.0,138.14,28.48,24.60,36.33,0.04,-272.74,-272.74,-53,552,-959,22.8,1.0,-36.5,22.7,1.0,-36.0,5.73,2.76,-33.3,25.6
2012-01-28 01:01:00,0.0,1.9280,0.0011,403.51,0.24,-1.0,0.0,138.15,28.46,24.61,36.32,0.04,-272.73,-272.74,-55,552,-959,22.8,1.0,-36.5,22.7,1.0,-36.0,5.73,2.23,-33.4,25.4
2012-01-28 01:02:00,0.0,1.9263,0.0012,403.44,0.23,-1.0,0.0,138.15,28.43,24.60,36.32,0.04,-272.74,-272.74,-53,552,-959,22.8,1.0,-36.5,22.6,1.0,-36.0,5.73,2.57,-33.5,25.3
2012-01-28 01:03:00,0.0,1.9239,0.0015,403.20,0.24,-1.0,0.0,138.15,28.41,24.60,36.33,0.04,-272.74,-272.74,-55,549,-959,22.7,1.0,-36.5,22.6,1.0,-36.1,5.73,2.52,-33.6,25.3
2012-01-28 01:04:00,0.0,1.9219,0.0011,403.11,0.24,-1.0,0.0,138.15,28.38,24.61,36.32,0.04,-272.74,-272.73,-54,551,-959,22.7,1.0,-36.6,22.6,1.0,-36.2,5.73,2.32,-33.6,25.9
2012-01-28 01:05:00,0.0,1.9251,0.0017,403.21,0.24,-1.0,0.0,138.15,28.37,24.60,36.32,0.04,-272.73,-272.73,-53,551,-958,22.7,0.9,-36.8,22.6,1.0,-36.4,5.73,2.45,-33.5,26.3
2012-01-28 01:06:00,0.0,1.9245,0.0012,403.09,0.22,-1.0,0.0,138.14,28.36,24.60,36.33,0.04,-272.74,-272.74,-54,552,-959,22.7,0.9,-36.8,22.6,1.0,-36.3,5.73,2.47,-33.4,26.6
2012-01-28 01:07:00,0.0,1.9276,0.0028,403.28,0.30,-1.0,0.0,138.13,28.36,24.60,36.32,0.04,-272.74,-272.74,-54,551,-959,22.7,0.9,-36.8,22.7,1.0,-36.3,5.73,2.46,-33.3,26.8
2012-01-28 01:08:00,0.0,1.9279,0.0013,403.31,0.24,-1.0,0.0,138.13,28.37,24.60,36.33,0.04,-272.74,-272.73,-54,551,-959,22.8,0.9,-36.7,22.7,1.0,-36.3,5.73,2.47,-33.2,26.9
2012-01-28 01:09:00,0.0,1.9294,0.0014,403.42,0.22,-1.0,0.0,138.12,28.38,24.60,36.32,0.04,-272.73,-272.74,-53,551,-958,22.8,0.9,-36.8,22.7,1.0,-36.3,5.73,2.47,-33.1,27.1
2012-01-28 01:10:00,0.0,1.9277,0.0013,403.34,0.26,-1.0,0.0,138.12,28.39,24.61,36.32,0.04,-272.74,-272.74,-53,551,-958,22.8,0.9,-36.7,22.8,1.0,-36.2,5.73,2.47,-33.0,27.2
2012-01-28 01:11:00,0.0,1.9312,0.0011,403.50,0.22,-1.0,0.0,138.11,28.41,24.60,36.33,0.04,-272.73,-272.74,-53,551,-958,22.9,0.9,-36.7,22.8,1.0,-36.3,5.73,2.48,-32.9,27.3
2012-01-28 01:12:00,0.0,1.9307,0.0010,403.54,0.22,-1.0,0.0,138.11,28.42,24.61,36.33,0.04,-272.73,-272.73,-53,551,-959,22.9,0.9,-36.7,22.8,1.0,-36.2,5.73,2.47,-32.8,27.4
2012-01-28 01:13:00,0.0,1.9283,0.0013,403.22,0.23,-1.0,0.0,138.10,28.45,24.60,36.34,0.04,-272.74,-272.73,-53,551,-958,22.9,0.9,-36.7,22.9,1.0,-36.2,5.73,2.48,-32.7,27.5
2012-01-28 01:14:00,0.0,1.9261,0.0015,403.21,0.19,-1.0,0.0,138.10,28.47,24.60,36.33,0.04,-272.74,-272.73,-53,551,-960,23.0,0.9,-36.7,22.9,1.0,-36.2,5.73,2.48,-32.6,27.6
2012-01-28 01:15:00,0.0,1.9245,0.0010,403.03,0.20,-1.0,0.0,138.10,28.49,24.61,36.34,0.04,-272.74,-272.74,-52,555,-959,23.0,0.9,-36.6,23.0,1.0,-36.2,5.73,2.48,-32.6,27.7
2012-01-28 01:16:00,0.0,1.9261,0.0012,403.14,0.20,-1.0,0.0,138.09,28.52,24.61,36.33,0.04,-272.74,-272.74,-53,552,-958,23.1,0.9,-36.6,23.0,1.0,-36.1,5.73,2.47,-32.5,27.7
2012-01-28 01:17:00,0.0,1.9251,0.0015,403.06,0.25,-1.0,0.0,138.09,28.54,24.60,36.34,0.04,-272.74,-272.74,-54,551,-959,23.1,0.9,-36.7,23.0,1.0,-36.2,5.73,2.38,-32.5,27.1
2012-01-28 01:18:00,0.0,1.9232,0.0009,403.05,0.23,-1.0,0.0,138.10,28.55,24.61,36.33,0.04,-272.74,-272.74,-53,552,-958,23.1,0.9,-37.0,23.0,1.0,-36.4,5.73,2.59,-32.6,26.7
2012-01-28 01:19:00,0.0,1.9224,0.0009,402.96,0.22,-1.0,0.0,138.11,28.56,24.61,36.33,0.04,-272.74,-272.73,-54,553,-959,23.1,0.9,-36.9,23.0,1.0,-36.4,5.73,2.58,-32.6,26.4
2012-01-28 01:20:00,0.0,1.9231,0.0009,403.16,0.25,-1.0,0.0,138.12,28.56,24.61,36.33,0.04,-272.74,-272.73,-53,553,-959,23.1,0.9,-37.0,22.9,1.0,-36.5,5.73,2.22,-32.8,26.3
2012-01-28 01:21:00,0.0,1.9257,0.0014,403.23,0.21,-1.0,0.0,138.12,28.55,24.61,36.33,0.04,-272.73,-272.73,-54,553,-959,23.0,0.9,-36.9,22.9,1.0,-36.5,5.73,2.76,-32.9,26.0
2012-01-28 01:22:00,0.0,1.9219,0.0009,402.92,0.22,-1.0,0.0,138.13,28.55,24.61,36.33,0.04,-272.74,-272.74,-54,552,-959,23.0,0.9,-36.8,22.9,1.0,-36.5,5.73,2.24,-33.0,25.9
2012-01-28 01:23:00,0.0,1.9201,0.0011,402.78,0.28,-1.0,0.0,138.13,28.53,24.61,36.33,0.04,-272.74,-272.74,-53,553,-959,22.9,0.9,-36.7,22.8,1.0,-36.3,5.73,2.59,-33.1,25.9
2012-01-28 01:24:00,0.0,1.9199,0.0010,402.87,0.21,-1.0,0.0,138.13,28.51,24.61,36.33,0.04,-272.73,-272.74,-54,553,-958,22.9,0.9,-36.7,22.8,1.0,-36.3,5.73,2.49,-33.2,25.7
2012-01-28 01:25:00,0.0,1.9195,0.0012,402.71,0.24,-1.0,0.0,138.14,28.49,24.61,36.33,0.04,-272.74,-272.73,-53,553,-959,22.9,0.9,-36.7,22.7,1.0,-36.4,5.73,2.30,-33.3,25.6
2012-01-28 01:26:00,0.0,1.9176,0.0011,402.67,0.22,-1.0,0.0,138.14,28.47,24.61,36.33,0.04,-272.74,-272.74,-54,552,-959,22.8,0.9,-36.7,22.7,1.0,-36.3,5.73,2.73,-33.4,25.5
2012-01-28 01:27:00,0.0,1.9173,0.0012,402.66,0.23,-1.0,0.0,138.15,28.44,24.61,36.32,0.04,-272.74,-272.74,-53,553,-959,22.8,0.9,-36.8,22.7,1.0,-36.4,5.73,2.17,-33.5,25.4
2012-01-28 01:28:00,0.0,1.9167,0.0012,402.54,0.24,-1.0,0.0,138.15,28.42,24.60,36.32,0.04,-272.73,-272.74,-55,551,-959,22.7,0.9,-36.8,22.6,1.0,-36.3,5.73,2.70,-33.5,25.5
2012-01-28 01:29:00,0.0,1.9158,0.0011,402.64,0.25,-1.0,0.0,138.15,28.40,24.61,36.31,0.04,-272.74,-272.74,-51,552,-961,22.7,0.9,-36.8,22.6,1.0,-36.5,5.73,2.39,-33.6,25.5
2012-01-28 01:30:00,0.0,1.9163,0.0010,402.58,0.25,-1.0,0.0,138.15,28.37,24.61,36.32,0.04,-272.73,-272.74,-54,552,-959,22.7,0.9,-36.8,22.6,1.0,-36.7,5.73,2.35,-33.6,26.1
2012-01-28 01:31:00,0.0,1.9162,0.0010,402.45,0.22,-1.0,0.0,138.14,28.36,24.61,36.33,0.04,-272.73,-272.74,-54,551,-958,22.7,0.9,-36.8,22.6,1.0,-36.5,5.73,2.45,-33.6,26.4
2012-01-28 01:32:00,0.0,1.9164,0.0010,402.54,0.23,-1.0,0.0,138.14,28.36,24.61,36.32,0.04,-272.73,-272.73,-54,551,-959,22.7,0.9,-36.8,22.7,1.0,-36.3,5.73,2.47,-33.4,26.7
2012-01-28 01:33:00,0.0,1.9183,0.0011,402.58,0.24,-1.0,0.0,138.13,28.36,24.60,36.32,0.04,-272.74,-272.74,-54,551,-959,22.7,1.0,-36.6,22.7,1.0,-36.1,5.73,2.46,-33.2,26.8
2012-01-28 01:34:00,0.0,1.9193,0.0011,402.63,0.23,-1.0,0.0,138.12,28.37,24.61,36.33,0.04,-272.73,-272.73,-54,551,-959,22.8,1.0,-36.5,22.7,1.0,-36.0,5.73,2.47,-33.2,27.0
2012-01-28 01:35:00,0.0,1.9203,0.0012,402.53,0.23,-1.0,0.0,138.12,28.38,24.60,36.33,0.04,-272.73,-272.73,-53,551,-958,22.8,1.0,-36.5,22.7,1.0,-36.0,5.73,2.47,-33.1,27.1
2012-01-28 01:36:00,0.0,1.9203,0.0009,402.54,0.19,-1.0,0.0,138.12,28.39,24.60,36.33,0.04,-272.74,-272.74,-53,551,-958,22.9,1.0,-36.5,22.8,1.0,-36.0,5.73,2.47,-33.0,27.3
2012-01-28 01:37:00,0.0,1.9216,0.0010,402.80,0.21,-1.0,0.0,138.11,28.41,24.60,36.33,0.04,-272.74,-272.74,-53,551,-958,22.9,1.0,-36.5,22.8,1.0,-36.0,5.73,2.48,-32.9,27.4
2012-01-28 01:38:00,0.0,1.9209,0.0010,402.78,0.22,-1.0,0.0,138.11,28.43,24.61,36.33,0.04,-272.73,-272.73,-53,551,-958,22.9,1.0,-36.3,22.9,1.0,-36.0,5.73,2.47,-32.8,27.5
2012-01-28 01:39:00,0.0,1.9229,0.0016,402.82,0.25,-1.0,0.0,138.10,28.45,24.60,36.34,0.04,-272.74,-272.73,-53,551,-958,22.9,1.0,-36.1,22.9,1.0,-35.6,5.73,2.47,-32.7,27.6
2012-01-28 01:40:00,0.0,1.9217,0.0011,402.83,0.21,-1.0,0.0,138.10,28.48,24.60,36.33,0.04,-272.74,-272.74,-54,551,-959,23.0,1.0,-36.1,22.9,1.0,-35.6,5.73,2.48,-32.7,27.7
2012-01-28 01:41:00,0.0,1.9235,0.0012,403.09,0.23,-1.0,0.0,138.10,28.50,24.61,36.33,0.04,-272.73,-272.74,-52,552,-958,23.0,1.0,-36.1,23.0,1.0,-35.6,5.73,2.49,-32.6,27.8
2012-01-28 01:42:00,0.0,1.9251,0.0010,403.14,0.24,-1.0,0.0,138.09,28.52,24.61,36.33,0.04,-272.73,-272.74,-53,551,-958,23.1,1.0,-36.0,23.0,1.0,-35.6,5.73,2.46,-32.5,27.7
2012-01-28 01:43:00,0.0,1.9258,0.0013,403.22,0.24,-1.0,0.0,138.10,28.54,24.61,36.34,0.04,-272.74,-272.74,-53,552,-958,23.1,1.0,-36.1,23.0,1.0,-35.6,5.73,2.40,-32.5,27.2
2012-01-28 01:44:00,0.0,1.9264,0.0011,403.23,0.21,-1.0,0.0,138.10,28.55,24.61,36.34,0.04,-272.74,-272.75,-56,552,-960,23.1,1.0,-36.0,23.0,1.0,-35.6,5.73,2.65,-32.6,26.8
2012-01-28 01:45:00,0.0,1.9274,0.0010,403.41,0.24,-1.0,0.0,138.11,28.56,24.61,36.33,0.04,-272.74,-272.73,-52,553,-959,23.1,1.0,-36.1,23.0,1.0,-35.6,5.73,2.48,-32.7,26.6
2012-01-28 01:46:00,0.0,1.9271,0.0012,403.37,0.26,-1.0,0.0,138.12,28.56,24.61,36.33,0.04,-272.73,-272.74,-54,552,-959,23.1,1.0,-36.3,23.0,1.0,-35.8,5.73,2.28,-32.8,26.5
2012-01-28 01:47:00,0.0,1.9275,0.0012,403.34,0.25,-1.0,0.0,138.12,28.55,24.61,36.34,0.04,-272.74,-272.74,-53,552,-959,23.0,1.0,-36.4,22.9,1.0,-35.9,5.73,2.76,-32.9,26.2
2012-01-28 01:48:00,0.0,1.9270,0.0009,403.33,0.20,-1.0,0.0,138.13,28.54,24.61,36.33,0.04,-272.73,-272.74,-53,553,-959,23.0,1.0,-36.4,22.9,1.0,-36.0,5.73,2.20,-33.0,26.2
2012-01-28 01:49:00,0.0,1.9266,0.0010,403.24,0.24,-1.0,0.0,138.13,28.53,24.60,36.33,0.04,-272.73,-272.74,-54,552,-959,22.9,1.0,-36.4,22.8,1.0,-35.9,5.73,2.65,-33.1,26.0
2012-01-28 01:50:00,0.0,1.9256,0.0008,403.31,0.21,-1.0,0.0,138.14,28.51,24.61,36.33,0.04,-272.74,-272.73,-53,553,-959,22.9,1.0,-36.5,22.8,1.0,-36.0,5.73,2.43,-33.2,25.9
2012-01-28 01:51:00,0.0,1.9258,0.0008,403.27,0.24,-1.0,0.0,138.14,28.49,24.61,36.32,0.04,-272.74,-272.74,-55,552,-957,22.9,1.0,-36.3,22.7,1.0,-36.0,5.73,2.36,-33.3,25.8
2012-01-28 01:52:00,0.0,1.9264,0.0011,403.25,0.23,-1.0,0.0,138.14,28.47,24.60,36.33,0.04,-272.74,-272.74,-53,553,-959,22.8,1.0,-36.5,22.7,1.0,-36.0,5.73,2.71,-33.4,25.7
2012-01-28 01:53:00,0.0,1.9257,0.0010,403.30,0.26,-1.0,0.0,138.15,28.44,24.61,36.33,0.04,-272.74,-272.74,-55,552,-959,22.8,1.0,-36.5,22.7,1.0,-36.0,5.73,2.17,-33.5,25.6
2012-01-28 01:54:00,0.0,1.9261,0.0012,403.41,0.22,-1.0,0.0,138.15,28.42,24.61,36.32,0.04,-272.74,-272.74,-53,552,-959,22.7,1.0,-36.5,22.6,1.0,-36.1,5.73,2.72,-33.6,25.5
2012-01-28 01:55:00,0.0,1.9260,0.0012,403.42,0.21,-1.0,0.0,138.15,28.39,24.60,36.32,0.04,-272.74,-272.73,-53,550,-957,22.7,1.0,-36.6,22.6,1.0,-36.2,5.73,2.35,-33.6,25.7
2012-01-28 01:56:00,0.0,1.9256,0.0010,403.28,0.25,-1.0,0.0,138.15,28.37,24.60,36.33,0.04,-272.74,-272.74,-54,551,-959,22.7,0.9,-36.9,22.6,1.0,-36.4,5.73,2.37,-33.6,26.2
2012-01-28 01:57:00,0.0,1.9247,0.0010,403.26,0.23,-1.0,0.0,138.15,28.36,24.60,36.31,0.04,-272.73,-272.74,-54,552,-959,22.7,0.9,-36.8,22.6,1.0,-36.4,5.73,2.46,-33.5,26.5
2012-01-28 01:58:00,0.0,1.9241,0.0011,403.14,0.24,-1.0,0.0,138.14,28.35,24.60,36.32,0.04,-272.73,-272.74,-54,551,-959,22.7,0.9,-36.8,22.6,1.0,-36.6,5.73,2.47,-33.4,26.7
2012-01-28 01:59:00,0.0,1.9260,0.0012,403.28,0.24,-1.0,0.0,138.13,28.35,24.60,36.32,0.04,-272.73,-272.74,-54,551,-959,22.7,0.9,-36.8,22.7,1.0,-36.5,5.73,2.47,-33.2,26.9
2012-01-28 02:00:00,0.0,1.9272,0.0012,403.27,0.25,-1.0,0.0,138.13,28.36,24.60,36.32,0.26,-270.86,-272.68,-54,551,-959,22.8,0.9,-36.8,22.7,1.0,-36.4,5.42,2.57,-36.9,27.0
2012-01-28 02:01:00,0.0,1.9276,0.0011,403.25,0.21,-1.0,0.0,138.12,28.37,24.61,36.33,0.04,-272.74,-272.74,-54,551,-959,22.8,0.9,-36.8,22.7,1.0,-36.5,5.73,2.47,-33.1,27.2
2012-01-28 02:02:00,0.0,1.9282,0.0010,403.32,0.24,-1.0,0.0,138.11,28.39,24.61,36.33,0.04,-272.74,-272.74,-54,551,-959,22.9,0.9,-37.0,22.8,1.0,-36.5,5.73,2.47,-33.0,27.3
2012-01-28 02:03:00,0.0,1.9298,0.0012,403.47,0.22,-1.0,0.0,138.11,28.41,24.60,36.32,0.04,-272.73,-272.73,-53,551,-958,22.9,0.9,-37.0,22.8,1.0,-36.5,5.73,2.47,-32.9,27.4
2012-01-28 02:04:00,0.0,1.9296,0.0010,403.46,0.21,-1.0,0.0,138.11,28.43,24.60,36.33,0.04,-272.74,-272.74,-53,551,-958,22.9,0.9,-37.0,22.9,1.0,-36.5,5.73,2.47,-32.8,27.5
2012-01-28 02:05:00,0.0,1.9293,0.0009,403.40,0.20,-1.0,0.0,138.10,28.45,24.60,36.33,0.04,-272.73,-272.73,-53,551,-959,22.9,0.9,-36.9,22.9,1.0,-36.4,5.73,2.48,-32.7,27.6
2012-01-28 02:06:00,0.0,1.9289,0.0009,403.42,0.25,-1.0,0.0,138.10,28.48,24.61,36.33,0.04,-272.74,-272.74,-52,553,-959,23.0,0.9,-37.0,22.9,1.0,-36.4,5.73,2.47,-32.6,27.7
2012-01-28 02:07:00,0.0,1.9297,0.0011,403.41,0.22,-1.0,0.0,138.10,28.50,24.60,36.33,0.04,-272.74,-272.73,-53,551,-958,23.0,0.9,-36.9,23.0,1.0,-36.4,5.73,2.49,-32.6,27.8
2012-01-28 02:08:00,0.0,1.9303,0.0008,403.57,0.27,-1.0,0.0,138.09,28.53,24.61,36.33,0.04,-272.73,-272.74,-53,552,-958,23.1,0.9,-36.8,23.0,1.0,-36.4,5.73,2.46,-32.5,27.7
2012-01-28 02:09:00,0.0,1.9319,0.0008,403.66,0.23,-1.0,0.0,138.10,28.55,24.61,36.34,0.04,-272.73,-272.74,-53,552,-958,23.1,0.9,-36.6,23.0,1.0,-36.1,5.73,2.40,-32.5,27.2
2012-01-28 02:10:00,0.0,1.9329,0.0009,403.70,0.23,-1.0,0.0,138.10,28.56,24.61,36.34,0.04,-272.74,-272.74,-52,553,-960,23.1,1.0,-36.3,23.0,1.0,-35.9,5.73,2.65,-32.6,26.8
2012-01-28 02:11:00,0.0,1.9314,0.0012,403.57,0.24,-1.0,0.0,138.11,28.57,24.61,36.34,0.04,-272.74,-272.74,-54,552,-959,23.1,1.0,-36.1,23.0,1.0,-35.7,5.73,2.47,-32.7,26.5
2012-01-28 02:12:00,0.0,1.9332,0.0014,403.76,0.28,-1.0,0.0,138.12,28.57,24.61,36.33,0.04,-272.73,-272.74,-53,552,-959,23.0,1.0,-36.2,23.0,1.0,-35.8,5.73,2.28,-32.8,26.2
2012-01-28 02:13:00,0.0,1.9350,0.0009,404.00,0.25,-1.0,0.0,138.12,28.56,24.61,36.33,0.04,-272.74,-272.74,-54,553,-959,23.0,1.0,-36.4,22.9,1.0,-35.9,5.73,2.75,-33.0,26.1
2012-01-28 02:14:00,0.0,1.9324,0.0020,403.68,0.18,-1.0,0.0,138.13,28.54,24.61,36.34,0.04,-272.74,-272.74,-54,552,-959,23.0,0.9,-36.7,22.9,1.0,-36.2,5.73,2.19,-33.1,25.9
2012-01-28 02:15:00,0.0,1.9284,0.0012,403.46,0.24,-1.0,0.0,138.13,28.53,24.61,36.33,0.04,-272.74,-272.74,-53,553,-959,22.9,0.9,-36.7,22.8,1.0,-36.3,5.73,2.67,-33.2,25.8
2012-01-28 02:16:00,0.0,1.9304,0.0010,403.73,0.22,-1.0,0.0,138.14,28.51,24.61,36.32,0.04,-272.74,-272.73,-54,552,-959,22.9,0.9,-36.7,22.8,1.0,-36.3,5.73,2.41,-33.3,25.8
2012-01-28 02:17:00,0.0,1.9324,0.0010,403.84,0.23,-1.0,0.0,138.14,28.49,24.61,36.33,0.04,-272.73,-272.74,-55,551,-961,22.9,0.9,-36.7,22.8,1.0,-36.3,5.73,2.36,-33.3,25.6
2012-01-28 02:18:00,0.0,1.9318,0.0013,403.78,0.27,-1.0,0.0,138.14,28.46,24.60,36.32,0.04,-272.74,-272.74,-55,552,-959,22.8,0.9,-36.7,22.7,1.0,-36.5,5.73,2.71,-33.4,25.5